Hampton, VA

8:24 AM EST on February 07, 2016 (GMT -0500)
Langley Air Force Base

Weather History for KLFI - June, 2013

Change the Weather History Date:

Wednesday, June 12, 2013

  Actual Average Record
Temperature  
Mean Temperature 78 °F -  
Max Temperature 89 °F 82 °F 98 °F (1986)
Min Temperature 68 °F 65 °F 53 °F (1979)
Cooling Degree Days 14    
Growing Degree Days 28 (Base 50)    
Moisture  
Dew Point 70 °F    
Average Humidity 76    
Maximum Humidity 100    
Minimum Humidity 52    
Precipitation  
Precipitation 0.00 in - - ()
Sea Level Pressure  
Sea Level Pressure 29.89 in    
Wind  
Wind Speed 8 mph (WSW)    
Max Wind Speed 17 mph    
Max Gust Speed 22 mph    
Visibility 10 miles    
Events      
Averages and records for this station are not official NWS values.
T = Trace of Precipitation, MM = Missing Value Source: NWS Daily Summary

Daily Weather History Graph

Daily Weather History Graph

Search for Another Location

Airport or City:

Trip Planner

Search our weather history database for the weather conditions in past years. The results will help you decide how hot, cold, wet, or windy it might be!

Date:

Astronomy

Jun. 12, 2013 Rise Set
Actual Time 5:45 AM EDT 8:25 PM EDT
Civil Twilight 5:14 AM EDT 8:56 PM EDT
Nautical Twilight 4:35 AM EDT 9:35 PM EDT
Astronomical Twilight 3:52 AM EDT 10:18 PM EDT
Moon 9:18 AM EDT (6/12) 11:05 PM EDT (6/12)
Length of Visible Light 15h 42m
Length of Day
14h 40m
Waxing Crescent, 14% of the Moon is Illuminated
Jun 12
Waxing Crescent
Jun 16
First Quarter
Jun 23
Full
Jun 30
Last Quarter
Jul 8
New

Hourly Weather History & Observations

Time (EDT) Temp. Heat Index Dew Point Humidity Pressure Visibility Wind Dir Wind Speed Gust Speed Precip Events Conditions
12:58 AM 71.6 °F - 68.0 °F 88% 29.92 in 10.0 mi WSW 8.1 mph - N/A   Clear
1:58 AM 71.2 °F - 68.5 °F 91% 29.92 in 10.0 mi WSW 8.1 mph - N/A   Clear
2:58 AM 70.2 °F - 68.7 °F 95% 29.91 in 10.0 mi WSW 8.1 mph - N/A   Clear
3:18 AM 69.8 °F - 68.0 °F 94% 29.88 in 9.0 mi WSW 8.1 mph - N/A   Clear
3:58 AM 69.1 °F - 68.9 °F 99% 29.90 in 9.0 mi SW 8.1 mph - N/A   Clear
4:58 AM 68.5 °F - 68.2 °F 99% 29.92 in 10.0 mi West 5.8 mph - N/A   Clear
5:03 AM 68.0 °F - 68.0 °F 100% 29.90 in 10.0 mi West 5.8 mph - N/A   Clear
5:58 AM 68.4 °F - 67.8 °F 98% 29.94 in 8.0 mi West 4.6 mph - N/A   Clear
6:58 AM 70.3 °F - 68.9 °F 95% 29.94 in 7.0 mi SW 5.8 mph - N/A   Clear
7:58 AM 75.2 °F - 68.5 °F 80% 29.94 in 10.0 mi WSW 5.8 mph - N/A   Clear
8:58 AM 79.3 °F - 69.3 °F 71% 29.92 in 10.0 mi WSW 6.9 mph - N/A   Clear
9:58 AM 81.9 °F 85.4 °F 69.6 °F 66% 29.92 in 9.0 mi West 6.9 mph - N/A   Clear
10:58 AM 83.7 °F 87.2 °F 68.9 °F 61% 29.92 in 10.0 mi WSW 11.5 mph - N/A   Partly Cloudy
11:58 AM 84.7 °F 87.6 °F 67.5 °F 56% 29.91 in 10.0 mi WSW 13.8 mph - N/A   Scattered Clouds
12:58 PM 86.7 °F 89.6 °F 66.9 °F 52% 29.90 in 10.0 mi SW 16.1 mph 21.9 mph N/A   Clear
1:58 PM 88.0 °F 91.8 °F 68.5 °F 52% 29.89 in 10.0 mi WSW 17.3 mph 21.9 mph N/A   Partly Cloudy
2:58 PM 89.1 °F 93.7 °F 69.3 °F 52% 29.88 in 10.0 mi West 10.4 mph - N/A   Clear
3:58 PM 88.5 °F 93.5 °F 69.8 °F 54% 29.86 in 10.0 mi West 9.2 mph - N/A   Scattered Clouds
4:58 PM 88.0 °F 93.4 °F 70.7 °F 56% 29.86 in 10.0 mi West 10.4 mph - N/A   Partly Cloudy
5:58 PM 88.5 °F 94.9 °F 71.6 °F 57% 29.85 in 10.0 mi WSW 10.4 mph - N/A   Partly Cloudy
6:58 PM 87.1 °F 94.1 °F 72.9 °F 62% 29.85 in 10.0 mi WSW 9.2 mph - N/A   Partly Cloudy
7:58 PM 84.4 °F 91.0 °F 73.0 °F 69% 29.85 in 10.0 mi WSW 8.1 mph - N/A   Clear
8:58 PM 80.8 °F 85.4 °F 72.9 °F 77% 29.86 in 10.0 mi WSW 6.9 mph - N/A   Clear
9:58 PM 79.2 °F - 73.0 °F 81% 29.87 in 10.0 mi WSW 4.6 mph - N/A   Clear
10:58 PM 77.5 °F - 74.1 °F 89% 29.87 in 10.0 mi SW 5.8 mph - N/A   Clear
11:58 PM 80.1 °F 84.2 °F 73.0 °F 79% 29.86 in 10.0 mi SW 5.8 mph - N/A   Clear